OE7SBH-WX Weather Reports


Display with metric or nautical units.
time (UTC)temp
F
wind
direction
speed
MPH
gust
MPH
rain 1hr
in
rain 24hr
in
rain mn
in
humidity
%
barometer
mb
20260901101529 70 338 4.0 8.0 0.00 0.11 0.00 64 1027.7
20260901100521 69 335 2.0 6.0 0.00 0.11 0.00 69 1027.9
20260901095548 70 29 2.0 3.0 0.00 0.11 0.00 69 1028.1
20260901094520 68 11 2.0 7.0 0.00 0.11 0.00 71 1028.2
20260901093553 68 332 3.0 6.0 0.00 0.11 0.00 70 1028.2
20260901092518 68 17 1.0 6.0 0.00 0.11 0.00 71 1028.4
20260901091528 68 332 1.0 3.0 0.00 0.11 0.00 70 1028.5
20260901090518 67 351 1.0 2.0 0.00 0.11 0.00 72 1028.7
20260901085528 65 331 2.0 3.0 0.00 0.11 0.00 79 1028.7
20260901084518 65 53 1.0 2.0 0.00 0.11 0.00 80 1028.7
20260901083549 65 48 2.0 4.0 0.00 0.11 0.00 81 1028.7
20260901082519 64 9 2.0 4.0 0.00 0.11 0.00 81 1028.9
20260901081529 64 55 2.0 7.0 0.00 0.11 0.00 82 1029.0
20260901080518 62 334 2.0 4.0 0.00 0.11 0.00 86 1029.1
20260901075528 61 1 2.0 4.0 0.00 0.11 0.00 89 1029.2
20260901074518 62 340 3.0 7.0 0.00 0.11 0.00 89 1029.2
20260901073529 62 29 2.0 6.0 0.00 0.11 0.00 88 1029.1
20260901072518 61 332 2.0 4.0 0.00 0.11 0.00 90 1029.3
20260901071529 60 321 2.0 2.0 0.00 0.11 0.00 93 1029.4
20260901070518 59 336 2.0 3.0 0.00 0.11 0.00 93 1029.3
20260901065528 59 7 1.0 4.0 0.00 0.11 0.00 95 1029.5
20260901064518 58 332 1.0 2.0 0.00 0.11 0.00 95 1029.6
20260901063528 58 1 1.0 3.0 0.00 0.11 0.00 96 1029.6
20260901062519 58 331 2.0 3.0 0.00 0.11 0.00 96 1029.6
20260901061529 58 312 1.0 2.0 0.00 0.11 0.00 97 1029.5
20260901060518 57 338 1.0 3.0 0.00 0.11 0.00 98 1029.5
20260901055528 57 358 0.0 2.0 0.00 0.11 0.00 98 1029.6
20260901054518 57 13 0.0 1.0 0.00 0.11 0.00 98 1029.5
20260901053528 57 354 0.0 1.0 0.00 0.12 0.00 98 1029.4
20260901052518 57 52 1.0 2.0 0.00 0.12 0.00 98 1029.4
20260901051529 57 47 0.0 1.0 0.00 0.14 0.00 98 1029.1
20260901050538 57 47 0.0 1.0 0.00 0.14 0.00 98 1029.1
20260901045528 56 26 0.0 1.0 0.00 0.14 0.00 98 1029.1
20260901044532 57 62 1.0 2.0 0.00 0.14 0.00 98 1029.1
20260901043526 57 176 1.0 2.0 0.00 0.14 0.00 98 1029.1
20260901042541 57 166 1.0 2.0 0.00 0.14 0.00 98 1029.1
20260901041529 57 45 1.0 2.0 0.00 0.14 0.00 98 1029.2
20260901040540 57 191 1.0 2.0 0.00 0.14 0.00 98 1029.1
20260901035526 57 155 1.0 2.0 0.00 0.14 0.00 98 1029.1
20260901034520 57 4 0.0 1.0 0.00 0.14 0.00 97 1029.1
20260901033546 57 334 1.0 2.0 0.00 0.14 0.00 97 1029.0
20260901032520 58 175 1.0 2.0 0.00 0.14 0.00 98 1029.0
20260901031529 58 144 1.0 2.0 0.00 0.14 0.00 97 1029.1
20260901030524 58 47 1.0 2.0 0.00 0.16 0.00 96 1029.0
20260901025528 58 0.0 0.0 0.00 0.22 0.00 96 1029.1
20260901024522 58 335 0.0 1.0 0.00 0.22 0.00 95 1029.0
20260901023524 59 333 1.0 1.0 0.00 0.22 0.00 95 1029.0
20260901022520 59 359 1.0 1.0 0.00 0.22 0.00 95 1029.0
20260901021528 59 24 1.0 1.0 0.00 0.22 0.00 96 1029.0
20260901020521 59 20 0.0 1.0 0.00 0.22 0.00 96 1029.1
20260901015528 59 18 0.0 1.0 0.00 0.22 0.00 96 1028.9
20260901014520 59 18 0.0 1.0 0.00 0.22 0.00 96 1028.8
20260901013528 59 16 0.0 1.0 0.00 0.22 0.00 97 1029.0
20260901012520 59 16 1.0 2.0 0.00 0.22 0.00 98 1028.9
20260901011528 60 0.0 0.0 0.00 0.22 0.00 99 1028.9
20260901010520 60 0.0 0.0 0.00 0.22 0.00 99 1028.9
20260901005528 60 137 0.0 2.0 0.00 0.22 0.00 99 1028.8
20260901004521 60 223 1.0 2.0 0.00 0.22 0.00 99 1028.7
20260901003528 60 59 1.0 2.0 0.00 0.22 0.00 98 1028.6
20260901002520 60 307 0.0 1.0 0.00 0.22 0.00 98 1028.6
20260901001526 60 307 0.0 1.0 0.00 0.22 0.00 98 1028.7
20260901000552 60 315 1.0 2.0 0.00 0.22 0.00 99 1028.7
20260831235528 61 321 1.0 1.0 0.00 0.22 0.00 99 1028.6
20260831234518 61 271 0.0 1.0 0.00 0.22 0.00 99 1028.7
20260831233528 61 192 1.0 3.0 0.00 0.22 0.00 98 1028.6
20260831232558 61 48 1.0 2.0 0.00 0.22 0.00 98 1028.5
20260831231528 61 280 1.0 3.0 0.00 0.22 0.00 98 1028.4
20260831230521 61 264 1.0 2.0 0.00 0.22 0.00 98 1028.2
20260831225528 61 6 1.0 2.0 0.00 0.22 0.00 98 1028.4
20260831224521 61 333 5.0 8.0 0.00 0.22 0.00 98 1028.6
20260831223528 61 333 2.0 3.0 0.00 0.22 0.00 97 1028.5
20260831222540 61 338 2.0 2.0 0.00 0.22 0.00 97 1028.3
20260831221526 61 306 0.0 1.0 0.00 0.22 0.00 98 1028.1
20260831220521 61 324 2.0 3.0 0.00 0.22 0.00 98 1028.0
20260831215527 61 169 1.0 4.0 0.00 0.22 0.22 98 1027.9
20260831214521 62 131 1.0 3.0 0.00 0.22 0.22 98 1028.1
20260831213533 62 0.0 0.0 0.00 0.22 0.22 98 1028.0
20260831212520 62 29 0.0 2.0 0.00 0.22 0.22 97 1028.1
20260831211528 62 3 1.0 4.0 0.00 0.22 0.22 97 1028.0
20260831210541 62 321 2.0 3.0 0.00 0.22 0.22 97 1028.0
20260831205529 62 251 1.0 2.0 0.00 0.22 0.22 97 1027.8
20260831204521 62 39 0.0 1.0 0.00 0.22 0.22 96 1027.6
20260831203528 62 52 1.0 2.0 0.00 0.22 0.22 96 1027.4
20260831202521 62 291 0.0 1.0 0.00 0.22 0.22 95 1027.3
20260831201528 62 284 1.0 2.0 0.00 0.22 0.22 96 1027.2
20260831200520 62 184 1.0 2.0 0.00 0.22 0.22 96 1027.2
20260831195529 62 141 2.0 4.0 0.00 0.22 0.22 96 1027.2
20260831194521 62 314 1.0 2.0 0.00 0.22 0.22 96 1027.3
20260831193529 62 303 1.0 2.0 0.00 0.22 0.22 96 1027.2
20260831192520 62 344 1.0 2.0 0.00 0.22 0.22 95 1027.1
20260831191528 62 258 2.0 4.0 0.00 0.22 0.22 95 1026.9
20260831190520 62 125 2.0 4.0 0.00 0.22 0.22 94 1026.8
20260831185528 63 299 0.0 1.0 0.01 0.22 0.22 93 1026.7
20260831184520 62 274 1.0 2.0 0.03 0.22 0.22 93 1026.5
20260831183528 62 170 2.0 3.0 0.03 0.22 0.22 93 1026.3
20260831182520 62 328 2.0 3.0 0.03 0.22 0.22 92 1026.1
20260831181526 63 333 2.0 6.0 0.03 0.22 0.22 91 1025.8
20260831180521 64 314 2.0 4.0 0.03 0.22 0.22 88 1025.7
20260831175529 65 358 2.0 4.0 0.02 0.21 0.21 89 1025.6
20260831174521 65 329 3.0 8.0 0.00 0.19 0.19 87 1025.3
20260831173529 64 308 2.0 3.0 0.01 0.19 0.19 90 1024.3
20260831172520 65 3 3.0 6.0 0.02 0.19 0.19 88 1024.2
20260831171528 65 326 3.0 4.0 0.03 0.19 0.19 84 1024.1
20260831170521 65 307 2.0 6.0 0.03 0.19 0.19 88 1024.3
20260831165527 66 4 0.0 2.0 0.03 0.19 0.19 86 1024.4
20260831164521 65 86 2.0 4.0 0.03 0.19 0.19 85 1024.1
20260831163549 66 351 2.0 3.0 0.02 0.18 0.18 84 1023.7
20260831162520 66 328 7.0 13.0 0.01 0.17 0.17 84 1023.5
20260831161526 68 325 6.0 13.0 0.03 0.16 0.16 78 1023.7
20260831160521 68 297 5.0 9.0 0.05 0.16 0.16 77 1023.2
20260831155529 68 314 8.0 14.0 0.05 0.16 0.16 79 1023.2
20260831154521 68 335 7.0 14.0 0.05 0.16 0.16 81 1022.9
20260831153517 68 327 6.0 11.0 0.05 0.16 0.16 81 1022.6
20260831152521 68 323 11.0 16.0 0.05 0.16 0.16 83 1022.3
20260831151518 71 319 13.0 24.0 0.02 0.13 0.13 75 1021.7
20260831150517 74 327 12.0 21.0 0.00 0.11 0.11 66 1021.5
20260831145529 75 338 12.0 21.0 0.00 0.11 0.11 65 1021.6
20260831144533 75 325 12.0 22.0 0.00 0.11 0.11 65 1021.7
20260831143533 76 329 11.0 19.0 0.00 0.11 0.11 64 1021.8
20260831142519 76 327 11.0 18.0 0.00 0.11 0.11 64 1021.7
20260831141529 76 315 11.0 17.0 0.00 0.11 0.11 63 1021.7
20260831140520 77 329 8.0 16.0 0.00 0.11 0.11 63 1021.6
20260831135529 77 329 10.0 17.0 0.00 0.11 0.11 63 1021.7
20260831134517 77 323 11.0 19.0 0.00 0.11 0.11 62 1021.6
20260831133549 77 330 7.0 16.0 0.00 0.11 0.11 63 1021.7
20260831132519 77 330 9.0 15.0 0.00 0.11 0.11 62 1021.6
20260831131529 77 325 8.0 13.0 0.00 0.11 0.11 61 1021.7
20260831130519 78 330 10.0 18.0 0.00 0.11 0.11 60 1021.6
20260831125529 78 330 9.0 15.0 0.00 0.11 0.11 60 1021.7
20260831124523 78 332 7.0 11.0 0.00 0.11 0.11 59 1021.9
20260831123519 78 330 7.0 11.0 0.00 0.11 0.11 58 1022.0
20260831122520 79 328 6.0 10.0 0.00 0.11 0.11 56 1021.9
20260831121518 78 323 5.0 10.0 0.00 0.11 0.11 58 1022.1
20260831120521 76 325 5.0 9.0 0.00 0.11 0.11 62 1022.2
20260831115519 76 340 4.0 8.0 0.00 0.11 0.11 67 1022.2
20260831114517 76 323 2.0 4.0 0.00 0.11 0.11 69 1022.6
20260831113529 74 329 3.0 7.0 0.00 0.11 0.11 70 1022.6
20260831112519 75 327 4.0 8.0 0.00 0.11 0.11 68 1022.8
20260831111549 75 333 3.0 7.0 0.00 0.11 0.11 68 1022.9
20260831110519 75 352 3.0 6.0 0.00 0.11 0.11 68 1023.0
20260831105528 75 329 3.0 7.0 0.00 0.11 0.11 70 1023.1
20260831104539 75 115 1.0 3.0 0.00 0.11 0.11 67 1023.2
20260831103529 73 279 1.0 3.0 0.00 0.11 0.11 70 1023.4
20260831102519 74 335 1.0 2.0 0.00 0.11 0.11 70 1023.5